Terug naar catalogus

HAWK-7C

ActiefWetenschapSSO
NORAD 56200·PAYLOAD·🇺🇸 United States

Gelanceerd Apr 15, 2023 vanaf Vandenberg Space Force Base

Loading…

Volgende Passages (komende 24 uur)

TLE

VersSource: Space-Track

Epoch: Sep 14, 2026, 02:53 UTC

1 56200U 23054Y   26257.12055583  .00004879  00000-0  18034-3 0  9995
2 56200  97.2550 141.2142 0004098  82.7839 277.3867 15.28167096190607

Volg HAWK-7C in realtime met AllMySat

Download on the App Store